owner,sensor,date,latitude,longitude,vertical_datum,wind_speed,wind_to_direction,wind_speed_of_gust,qcFlag 
ADCP,ioos:station:wmo:42374:1,2011-01-01T00:00:00Z,28.8660,-88.0560,1.0,16.0,158.0,99.0,'11111222,11111222,11144222' 
ADCP,ioos:station:wmo:42374:1,2011-01-01T00:20:00Z,28.8660,-88.0560,1.0,16.9,157.0,99.0,'11111222,11111222,11144222' 
ADCP,ioos:station:wmo:42374:1,2011-01-01T00:40:00Z,28.8660,-88.0560,1.0,17.2,156.0,99.0,'11111222,11111222,11144222' 
ADCP,ioos:station:wmo:42374:1,2011-01-01T01:00:00Z,28.8660,-88.0560,1.0,16.4,156.0,99.0,'11111222,11111222,11144222' 
ADCP,ioos:station:wmo:42374:1,2011-01-01T01:20:00Z,28.8660,-88.0560,1.0,17.4,156.0,99.0,'11111222,11111222,11144222' 
ADCP,ioos:station:wmo:42374:1,2011-01-01T01:40:00Z,28.8660,-88.0560,1.0,16.9,158.0,99.0,'11111222,11111222,11144222' 
ADCP,ioos:station:wmo:42374:1,2011-01-01T02:00:00Z,28.8660,-88.0560,1.0,16.7,160.0,99.0,'11111222,11111222,11144222' 
ADCP,ioos:station:wmo:42374:1,2011-01-01T02:20:00Z,28.8660,-88.0560,1.0,17.4,159.0,99.0,'11111222,11111222,11144222' 
ADCP,ioos:station:wmo:42374:1,2011-01-01T02:40:00Z,28.8660,-88.0560,1.0,17.5,157.0,99.0,'11111222,11111222,11144222' 
ADCP,ioos:station:wmo:42374:1,2011-01-01T03:00:00Z,28.8660,-88.0560,1.0,17.8,156.0,99.0,'11111222,11111222,11144222' 
ADCP,ioos:station:wmo:42374:1,2011-01-01T03:20:00Z,28.8660,-88.0560,1.0,17.9,158.0,99.0,'11111222,11111222,11144222' 
ADCP,ioos:station:wmo:42374:1,2011-01-01T03:40:00Z,28.8660,-88.0560,1.0,18.2,159.0,99.0,'11111222,11111222,11144222' 
ADCP,ioos:station:wmo:42374:1,2011-01-01T04:00:00Z,28.8660,-88.0560,1.0,18.1,160.0,99.0,'11111222,11111222,11144222' 
ADCP,ioos:station:wmo:42374:1,2011-01-01T04:20:00Z,28.8660,-88.0560,1.0,17.6,163.0,99.0,'11111222,11111222,11144222' 
ADCP,ioos:station:wmo:42374:1,2011-01-01T04:40:00Z,28.8660,-88.0560,1.0,17.7,161.0,99.0,'11111222,11111222,11144222' 
ADCP,ioos:station:wmo:42374:1,2011-01-01T05:00:00Z,28.8660,-88.0560,1.0,17.9,159.0,99.0,'11111222,11111222,11144222' 
ADCP,ioos:station:wmo:42374:1,2011-01-01T05:20:00Z,28.8660,-88.0560,1.0,17.5,160.0,99.0,'11111222,11111222,11144222' 
ADCP,ioos:station:wmo:42374:1,2011-01-01T05:40:00Z,28.8660,-88.0560,1.0,17.3,160.0,99.0,'11111222,11111222,11144222' 
ADCP,ioos:station:wmo:42374:1,2011-01-01T06:00:00Z,28.8660,-88.0560,1.0,16.5,160.0,99.0,'11111222,11111222,11144222' 
ADCP,ioos:station:wmo:42374:1,2011-01-01T06:20:00Z,28.8660,-88.0560,1.0,16.6,159.0,99.0,'11111222,11111222,11144222' 
ADCP,ioos:station:wmo:42374:1,2011-01-01T06:40:00Z,28.8660,-88.0560,1.0,17.5,157.0,99.0,'11111222,11111222,11144222' 
ADCP,ioos:station:wmo:42374:1,2011-01-01T07:00:00Z,28.8660,-88.0560,1.0,17.2,159.0,99.0,'11111222,11111222,11144222' 
ADCP,ioos:station:wmo:42374:1,2011-01-01T07:20:00Z,28.8660,-88.0560,1.0,17.0,159.0,99.0,'11111222,11111222,11144222' 
ADCP,ioos:station:wmo:42374:1,2011-01-01T07:40:00Z,28.8660,-88.0560,1.0,16.1,161.0,99.0,'11111222,11111222,11144222' 
ADCP,ioos:station:wmo:42374:1,2011-01-01T08:00:00Z,28.8660,-88.0560,1.0,16.2,161.0,99.0,'11111222,11111222,11144222' 
ADCP,ioos:station:wmo:42374:1,2011-01-01T08:20:00Z,28.8660,-88.0560,1.0,16.6,163.0,99.0,'11111222,11111222,11144222' 
ADCP,ioos:station:wmo:42374:1,2011-01-01T08:40:00Z,28.8660,-88.0560,1.0,16.8,161.0,99.0,'11111222,11111222,11144222' 
ADCP,ioos:station:wmo:42374:1,2011-01-01T09:00:00Z,28.8660,-88.0560,1.0,16.3,164.0,99.0,'11111222,11111222,11144222' 
ADCP,ioos:station:wmo:42374:1,2011-01-01T09:20:00Z,28.8660,-88.0560,1.0,16.4,165.0,99.0,'11111222,11111222,11144222' 
ADCP,ioos:station:wmo:42374:1,2011-01-01T09:40:00Z,28.8660,-88.0560,1.0,15.9,166.0,99.0,'11111222,11111222,11144222' 
ADCP,ioos:station:wmo:42374:1,2011-01-01T10:00:00Z,28.8660,-88.0560,1.0,16.4,166.0,99.0,'11111222,11111222,11144222' 
ADCP,ioos:station:wmo:42374:1,2011-01-01T10:20:00Z,28.8660,-88.0560,1.0,16.1,165.0,99.0,'11111222,11111222,11144222' 
ADCP,ioos:station:wmo:42374:1,2011-01-01T10:40:00Z,28.8660,-88.0560,1.0,15.6,166.0,99.0,'11111222,11111222,11144222' 
ADCP,ioos:station:wmo:42374:1,2011-01-01T11:00:00Z,28.8660,-88.0560,1.0,15.2,164.0,99.0,'11111222,11111222,11144222' 
ADCP,ioos:station:wmo:42374:1,2011-01-01T11:20:00Z,28.8660,-88.0560,1.0,15.2,163.0,99.0,'11111222,11111222,11144222' 
ADCP,ioos:station:wmo:42374:1,2011-01-01T11:40:00Z,28.8660,-88.0560,1.0,14.9,166.0,99.0,'11111222,11111222,11144222' 
ADCP,ioos:station:wmo:42374:1,2011-01-01T12:00:00Z,28.8660,-88.0560,1.0,15.3,166.0,99.0,'11111222,11111222,11144222' 
ADCP,ioos:station:wmo:42374:1,2011-01-01T12:20:00Z,28.8660,-88.0560,1.0,14.9,167.0,99.0,'11111222,11111222,11144222' 
ADCP,ioos:station:wmo:42374:1,2011-01-01T12:40:00Z,28.8660,-88.0560,1.0,15.0,170.0,99.0,'11111222,11111222,11144222' 
ADCP,ioos:station:wmo:42374:1,2011-01-01T13:00:00Z,28.8660,-88.0560,1.0,14.3,171.0,99.0,'11111222,11111222,11144222' 
ADCP,ioos:station:wmo:42374:1,2011-01-01T13:20:00Z,28.8660,-88.0560,1.0,14.1,169.0,99.0,'11111222,11111222,11144222' 
ADCP,ioos:station:wmo:42374:1,2011-01-01T13:40:00Z,28.8660,-88.0560,1.0,13.9,171.0,99.0,'11111222,11111222,11144222' 
ADCP,ioos:station:wmo:42374:1,2011-01-01T14:00:00Z,28.8660,-88.0560,1.0,13.9,173.0,99.0,'11111222,11111222,11144222' 
ADCP,ioos:station:wmo:42374:1,2011-01-01T14:20:00Z,28.8660,-88.0560,1.0,14.3,176.0,99.0,'11111222,11111222,11144222' 
ADCP,ioos:station:wmo:42374:1,2011-01-01T14:40:00Z,28.8660,-88.0560,1.0,8.3,200.0,99.0,'11111222,11111222,11144222' 
ADCP,ioos:station:wmo:42374:1,2011-01-01T15:00:00Z,28.8660,-88.0560,1.0,8.6,189.0,99.0,'11111222,11111222,11144222' 
ADCP,ioos:station:wmo:42374:1,2011-01-01T15:20:00Z,28.8660,-88.0560,1.0,7.9,221.0,99.0,'11111222,11111222,11144222' 
ADCP,ioos:station:wmo:42374:1,2011-01-01T15:40:00Z,28.8660,-88.0560,1.0,8.4,195.0,99.0,'11111222,11111222,11144222' 
ADCP,ioos:station:wmo:42374:1,2011-01-01T16:00:00Z,28.8660,-88.0560,1.0,9.0,196.0,99.0,'11111222,11111222,11144222' 
ADCP,ioos:station:wmo:42374:1,2011-01-01T16:20:00Z,28.8660,-88.0560,1.0,9.5,203.0,99.0,'11111222,11111222,11144222' 
ADCP,ioos:station:wmo:42374:1,2011-01-01T16:40:00Z,28.8660,-88.0560,1.0,10.5,211.0,99.0,'11111222,11111222,11144222' 
ADCP,ioos:station:wmo:42374:1,2011-01-01T17:00:00Z,28.8660,-88.0560,1.0,10.8,216.0,99.0,'11111222,11111222,11144222' 
ADCP,ioos:station:wmo:42374:1,2011-01-01T17:20:00Z,28.8660,-88.0560,1.0,10.4,220.0,99.0,'11111222,11111222,11144222' 
ADCP,ioos:station:wmo:42374:1,2011-01-01T17:40:00Z,28.8660,-88.0560,1.0,10.6,223.0,99.0,'11111222,11111222,11144222' 
ADCP,ioos:station:wmo:42374:1,2011-01-01T18:00:00Z,28.8660,-88.0560,1.0,11.1,227.0,99.0,'11111222,11111222,11144222' 
ADCP,ioos:station:wmo:42374:1,2011-01-01T18:20:00Z,28.8660,-88.0560,1.0,11.5,227.0,99.0,'11111222,11111222,11144222' 
ADCP,ioos:station:wmo:42374:1,2011-01-01T18:40:00Z,28.8660,-88.0560,1.0,12.2,224.0,99.0,'11111222,11111222,11144222' 
ADCP,ioos:station:wmo:42374:1,2011-01-01T19:00:00Z,28.8660,-88.0560,1.0,11.9,224.0,99.0,'11111222,11111222,11144222' 
ADCP,ioos:station:wmo:42374:1,2011-01-01T19:20:00Z,28.8660,-88.0560,1.0,11.1,227.0,99.0,'11111222,11111222,11144222' 
ADCP,ioos:station:wmo:42374:1,2011-01-01T19:40:00Z,28.8660,-88.0560,1.0,12.4,227.0,99.0,'11111222,11111222,11144222' 
ADCP,ioos:station:wmo:42374:1,2011-01-01T20:00:00Z,28.8660,-88.0560,1.0,11.8,230.0,99.0,'11111222,11111222,11144222' 
ADCP,ioos:station:wmo:42374:1,2011-01-01T20:20:00Z,28.8660,-88.0560,1.0,11.7,231.0,99.0,'11111222,11111222,11144222' 
ADCP,ioos:station:wmo:42374:1,2011-01-01T20:40:00Z,28.8660,-88.0560,1.0,11.8,232.0,99.0,'11111222,11111222,11144222' 
ADCP,ioos:station:wmo:42374:1,2011-01-01T21:00:00Z,28.8660,-88.0560,1.0,10.8,234.0,99.0,'11111222,11111222,11144222' 
ADCP,ioos:station:wmo:42374:1,2011-01-01T21:20:00Z,28.8660,-88.0560,1.0,10.9,234.0,99.0,'11111222,11111222,11144222' 
ADCP,ioos:station:wmo:42374:1,2011-01-01T21:40:00Z,28.8660,-88.0560,1.0,10.1,231.0,99.0,'11111222,11111222,11144222' 
ADCP,ioos:station:wmo:42374:1,2011-01-01T22:00:00Z,28.8660,-88.0560,1.0,9.8,226.0,99.0,'11111222,11111222,11144222' 
ADCP,ioos:station:wmo:42374:1,2011-01-01T22:20:00Z,28.8660,-88.0560,1.0,9.8,227.0,99.0,'11111222,11111222,11144222' 
ADCP,ioos:station:wmo:42374:1,2011-01-01T22:40:00Z,28.8660,-88.0560,1.0,8.8,247.0,99.0,'11111222,11111222,11144222' 
ADCP,ioos:station:wmo:42374:1,2011-01-01T23:00:00Z,28.8660,-88.0560,1.0,6.9,345.0,99.0,'11111222,11111222,11144222' 
ADCP,ioos:station:wmo:42374:1,2011-01-01T23:20:00Z,28.8660,-88.0560,1.0,7.0,269.0,99.0,'11111222,11111222,11144222' 
ADCP,ioos:station:wmo:42374:1,2011-01-01T23:40:00Z,28.8660,-88.0560,1.0,7.3,24.0,99.0,'11111222,11111222,11144222' 
ADCP,ioos:station:wmo:42374:1,2011-01-02T00:00:00Z,28.8660,-88.0560,1.0,8.8,17.0,99.0,'11111222,11111222,11144222' 
ADCP,ioos:station:wmo:42374:1,2011-01-02T00:20:00Z,28.8660,-88.0560,1.0,9.5,24.0,99.0,'11111222,11111222,11144222' 
ADCP,ioos:station:wmo:42374:1,2011-01-02T00:40:00Z,28.8660,-88.0560,1.0,8.6,20.0,99.0,'11111222,11111222,11144222' 
ADCP,ioos:station:wmo:42374:1,2011-01-02T01:00:00Z,28.8660,-88.0560,1.0,8.2,17.0,99.0,'11111222,11111222,11144222' 
ADCP,ioos:station:wmo:42374:1,2011-01-02T01:20:00Z,28.8660,-88.0560,1.0,8.3,20.0,99.0,'11111222,11111222,11144222' 
ADCP,ioos:station:wmo:42374:1,2011-01-02T01:40:00Z,28.8660,-88.0560,1.0,7.3,25.0,99.0,'11111222,11111222,11144222' 
ADCP,ioos:station:wmo:42374:1,2011-01-02T02:00:00Z,28.8660,-88.0560,1.0,7.3,20.0,99.0,'11111222,11111222,11144222' 
ADCP,ioos:station:wmo:42374:1,2011-01-02T02:20:00Z,28.8660,-88.0560,1.0,4.7,29.0,99.0,'11111222,11111222,11144222' 
ADCP,ioos:station:wmo:42374:1,2011-01-02T02:40:00Z,28.8660,-88.0560,1.0,11.3,51.0,99.0,'11111222,11111222,11144222' 
ADCP,ioos:station:wmo:42374:1,2011-01-02T03:00:00Z,28.8660,-88.0560,1.0,7.9,56.0,99.0,'11111222,11111222,11144222' 
ADCP,ioos:station:wmo:42374:1,2011-01-02T03:20:00Z,28.8660,-88.0560,1.0,7.3,26.0,99.0,'11111222,11111222,11144222' 
ADCP,ioos:station:wmo:42374:1,2011-01-02T03:40:00Z,28.8660,-88.0560,1.0,8.3,25.0,99.0,'11111222,11111222,11144222' 
ADCP,ioos:station:wmo:42374:1,2011-01-02T04:00:00Z,28.8660,-88.0560,1.0,9.7,25.0,99.0,'11111222,11111222,11144222' 
ADCP,ioos:station:wmo:42374:1,2011-01-02T04:20:00Z,28.8660,-88.0560,1.0,9.5,21.0,99.0,'11111222,11111222,11144222' 
ADCP,ioos:station:wmo:42374:1,2011-01-02T04:40:00Z,28.8660,-88.0560,1.0,8.8,17.0,99.0,'11111222,11111222,11144222' 
ADCP,ioos:station:wmo:42374:1,2011-01-02T05:00:00Z,28.8660,-88.0560,1.0,8.2,19.0,99.0,'11111222,11111222,11144222' 
ADCP,ioos:station:wmo:42374:1,2011-01-02T05:20:00Z,28.8660,-88.0560,1.0,7.7,21.0,99.0,'11111222,11111222,11144222' 
ADCP,ioos:station:wmo:42374:1,2011-01-02T05:40:00Z,28.8660,-88.0560,1.0,7.4,20.0,99.0,'11111222,11111222,11144222' 
ADCP,ioos:station:wmo:42374:1,2011-01-02T06:00:00Z,28.8660,-88.0560,1.0,7.2,22.0,99.0,'11111222,11111222,11144222' 
ADCP,ioos:station:wmo:42374:1,2011-01-02T06:20:00Z,28.8660,-88.0560,1.0,6.6,20.0,99.0,'11111222,11111222,11144222' 
ADCP,ioos:station:wmo:42374:1,2011-01-02T06:40:00Z,28.8660,-88.0560,1.0,6.8,19.0,99.0,'11111222,11111222,11144222' 
ADCP,ioos:station:wmo:42374:1,2011-01-02T07:00:00Z,28.8660,-88.0560,1.0,7.4,15.0,99.0,'11111222,11111222,11144222' 
ADCP,ioos:station:wmo:42374:1,2011-01-02T07:20:00Z,28.8660,-88.0560,1.0,8.2,36.0,99.0,'11111222,11111222,11144222' 
ADCP,ioos:station:wmo:42374:1,2011-01-02T07:40:00Z,28.8660,-88.0560,1.0,7.7,42.0,99.0,'11111222,11111222,11144222' 
ADCP,ioos:station:wmo:42374:1,2011-01-02T08:00:00Z,28.8660,-88.0560,1.0,8.5,51.0,99.0,'11111222,11111222,11144222' 
ADCP,ioos:station:wmo:42374:1,2011-01-02T08:20:00Z,28.8660,-88.0560,1.0,9.2,138.0,99.0,'11111222,11111222,11144222' 
ADCP,ioos:station:wmo:42374:1,2011-01-02T08:40:00Z,28.8660,-88.0560,1.0,9.6,115.0,99.0,'11111222,11111222,11144222' 
ADCP,ioos:station:wmo:42374:1,2011-01-02T09:00:00Z,28.8660,-88.0560,1.0,9.7,21.0,99.0,'11111222,11111222,11144222' 
ADCP,ioos:station:wmo:42374:1,2011-01-02T09:20:00Z,28.8660,-88.0560,1.0,10.3,12.0,99.0,'11111222,11111222,11144222' 
ADCP,ioos:station:wmo:42374:1,2011-01-02T09:40:00Z,28.8660,-88.0560,1.0,10.5,13.0,99.0,'11111222,11111222,11144222' 
ADCP,ioos:station:wmo:42374:1,2011-01-02T10:00:00Z,28.8660,-88.0560,1.0,10.1,10.0,99.0,'11111222,11111222,11144222' 
ADCP,ioos:station:wmo:42374:1,2011-01-02T10:20:00Z,28.8660,-88.0560,1.0,10.0,17.0,99.0,'11111222,11111222,11144222' 
ADCP,ioos:station:wmo:42374:1,2011-01-02T10:40:00Z,28.8660,-88.0560,1.0,9.5,17.0,99.0,'11111222,11111222,11144222' 
ADCP,ioos:station:wmo:42374:1,2011-01-02T11:00:00Z,28.8660,-88.0560,1.0,8.9,20.0,99.0,'11111222,11111222,11144222' 
ADCP,ioos:station:wmo:42374:1,2011-01-02T11:20:00Z,28.8660,-88.0560,1.0,10.1,9.0,99.0,'11111222,11111222,11144222' 
ADCP,ioos:station:wmo:42374:1,2011-01-02T11:40:00Z,28.8660,-88.0560,1.0,10.6,14.0,99.0,'11111222,11111222,11144222' 
ADCP,ioos:station:wmo:42374:1,2011-01-02T12:00:00Z,28.8660,-88.0560,1.0,10.4,13.0,99.0,'11111222,11111222,11144222' 
ADCP,ioos:station:wmo:42374:1,2011-01-02T12:20:00Z,28.8660,-88.0560,1.0,9.9,12.0,99.0,'11111222,11111222,11144222' 
ADCP,ioos:station:wmo:42374:1,2011-01-02T12:40:00Z,28.8660,-88.0560,1.0,8.9,17.0,99.0,'11111222,11111222,11144222' 
ADCP,ioos:station:wmo:42374:1,2011-01-02T13:00:00Z,28.8660,-88.0560,1.0,8.4,18.0,99.0,'11111222,11111222,11144222' 
ADCP,ioos:station:wmo:42374:1,2011-01-02T13:20:00Z,28.8660,-88.0560,1.0,9.8,18.0,99.0,'11111222,11111222,11144222' 
ADCP,ioos:station:wmo:42374:1,2011-01-02T13:40:00Z,28.8660,-88.0560,1.0,10.1,14.0,99.0,'11111222,11111222,11144222' 
ADCP,ioos:station:wmo:42374:1,2011-01-02T14:00:00Z,28.8660,-88.0560,1.0,11.0,11.0,99.0,'11111222,11111222,11144222' 
ADCP,ioos:station:wmo:42374:1,2011-01-02T14:20:00Z,28.8660,-88.0560,1.0,10.6,13.0,99.0,'11111222,11111222,11144222' 
ADCP,ioos:station:wmo:42374:1,2011-01-02T14:40:00Z,28.8660,-88.0560,1.0,11.0,47.0,99.0,'11111222,11111222,11144222' 
ADCP,ioos:station:wmo:42374:1,2011-01-02T15:00:00Z,28.8660,-88.0560,1.0,11.6,30.0,99.0,'11111222,11111222,11144222' 
ADCP,ioos:station:wmo:42374:1,2011-01-02T15:20:00Z,28.8660,-88.0560,1.0,11.3,14.0,99.0,'11111222,11111222,11144222' 
ADCP,ioos:station:wmo:42374:1,2011-01-02T15:40:00Z,28.8660,-88.0560,1.0,11.5,19.0,99.0,'11111222,11111222,11144222' 
ADCP,ioos:station:wmo:42374:1,2011-01-02T16:00:00Z,28.8660,-88.0560,1.0,12.0,14.0,99.0,'11111222,11111222,11144222' 
ADCP,ioos:station:wmo:42374:1,2011-01-02T16:20:00Z,28.8660,-88.0560,1.0,12.0,15.0,99.0,'11111222,11111222,11144222' 
ADCP,ioos:station:wmo:42374:1,2011-01-02T16:40:00Z,28.8660,-88.0560,1.0,11.5,14.0,99.0,'11111222,11111222,11144222' 
ADCP,ioos:station:wmo:42374:1,2011-01-02T17:00:00Z,28.8660,-88.0560,1.0,11.4,19.0,99.0,'11111222,11111222,11144222' 
ADCP,ioos:station:wmo:42374:1,2011-01-02T17:20:00Z,28.8660,-88.0560,1.0,11.4,20.0,99.0,'11111222,11111222,11144222' 
ADCP,ioos:station:wmo:42374:1,2011-01-02T17:40:00Z,28.8660,-88.0560,1.0,11.6,22.0,99.0,'11111222,11111222,11144222' 
ADCP,ioos:station:wmo:42374:1,2011-01-02T18:00:00Z,28.8660,-88.0560,1.0,11.5,19.0,99.0,'11111222,11111222,11144222' 
ADCP,ioos:station:wmo:42374:1,2011-01-02T18:20:00Z,28.8660,-88.0560,1.0,12.0,15.0,99.0,'11111222,11111222,11144222' 
ADCP,ioos:station:wmo:42374:1,2011-01-02T18:40:00Z,28.8660,-88.0560,1.0,11.7,12.0,99.0,'11111222,11111222,11144222' 
ADCP,ioos:station:wmo:42374:1,2011-01-02T19:00:00Z,28.8660,-88.0560,1.0,11.9,14.0,99.0,'11111222,11111222,11144222' 
ADCP,ioos:station:wmo:42374:1,2011-01-02T19:20:00Z,28.8660,-88.0560,1.0,12.1,12.0,99.0,'11111222,11111222,11144222' 
ADCP,ioos:station:wmo:42374:1,2011-01-02T19:40:00Z,28.8660,-88.0560,1.0,11.1,12.0,99.0,'11111222,11111222,11144222' 
ADCP,ioos:station:wmo:42374:1,2011-01-02T20:00:00Z,28.8660,-88.0560,1.0,10.4,14.0,99.0,'11111222,11111222,11144222' 
ADCP,ioos:station:wmo:42374:1,2011-01-02T20:20:00Z,28.8660,-88.0560,1.0,9.6,18.0,99.0,'11111222,11111222,11144222' 
ADCP,ioos:station:wmo:42374:1,2011-01-02T20:40:00Z,28.8660,-88.0560,1.0,9.7,14.0,99.0,'11111222,11111222,11144222' 
ADCP,ioos:station:wmo:42374:1,2011-01-02T21:00:00Z,28.8660,-88.0560,1.0,10.1,19.0,99.0,'11111222,11111222,11144222' 
ADCP,ioos:station:wmo:42374:1,2011-01-02T21:20:00Z,28.8660,-88.0560,1.0,10.5,14.0,99.0,'11111222,11111222,11144222' 
ADCP,ioos:station:wmo:42374:1,2011-01-02T21:40:00Z,28.8660,-88.0560,1.0,10.2,14.0,99.0,'11111222,11111222,11144222' 
ADCP,ioos:station:wmo:42374:1,2011-01-02T22:00:00Z,28.8660,-88.0560,1.0,10.0,19.0,99.0,'11111222,11111222,11144222' 
ADCP,ioos:station:wmo:42374:1,2011-01-02T22:40:00Z,28.8660,-88.0560,1.0,10.8,19.0,99.0,'11111222,11111222,11144222' 
ADCP,ioos:station:wmo:42374:1,2011-01-02T23:00:00Z,28.8660,-88.0560,1.0,10.6,20.0,99.0,'11111222,11111222,11144222' 
ADCP,ioos:station:wmo:42374:1,2011-01-02T23:20:00Z,28.8660,-88.0560,1.0,11.1,23.0,99.0,'11111222,11111222,11144222' 
ADCP,ioos:station:wmo:42374:1,2011-01-02T23:40:00Z,28.8660,-88.0560,1.0,11.6,23.0,99.0,'11111222,11111222,11144222' 
ADCP,ioos:station:wmo:42374:1,2011-01-03T00:00:00Z,28.8660,-88.0560,1.0,12.1,21.0,99.0,'11111222,11111222,11144222' 
ADCP,ioos:station:wmo:42374:1,2011-01-03T00:20:00Z,28.8660,-88.0560,1.0,11.5,26.0,99.0,'11111222,11111222,11144222' 
ADCP,ioos:station:wmo:42374:1,2011-01-03T00:40:00Z,28.8660,-88.0560,1.0,10.9,30.0,99.0,'11111222,11111222,11144222' 
ADCP,ioos:station:wmo:42374:1,2011-01-03T01:00:00Z,28.8660,-88.0560,1.0,10.7,31.0,99.0,'11111222,11111222,11144222' 
ADCP,ioos:station:wmo:42374:1,2011-01-03T01:20:00Z,28.8660,-88.0560,1.0,10.4,33.0,99.0,'11111222,11111222,11144222' 
ADCP,ioos:station:wmo:42374:1,2011-01-03T01:40:00Z,28.8660,-88.0560,1.0,10.4,32.0,99.0,'11111222,11111222,11144222' 
ADCP,ioos:station:wmo:42374:1,2011-01-03T02:00:00Z,28.8660,-88.0560,1.0,10.4,34.0,99.0,'11111222,11111222,11144222' 
ADCP,ioos:station:wmo:42374:1,2011-01-03T02:20:00Z,28.8660,-88.0560,1.0,10.8,35.0,99.0,'11111222,11111222,11144222' 
ADCP,ioos:station:wmo:42374:1,2011-01-03T02:40:00Z,28.8660,-88.0560,1.0,10.7,37.0,99.0,'11111222,11111222,11144222' 
ADCP,ioos:station:wmo:42374:1,2011-01-03T03:00:00Z,28.8660,-88.0560,1.0,10.2,35.0,99.0,'11111222,11111222,11144222' 
ADCP,ioos:station:wmo:42374:1,2011-01-03T03:20:00Z,28.8660,-88.0560,1.0,10.1,35.0,99.0,'11111222,11111222,11144222' 
ADCP,ioos:station:wmo:42374:1,2011-01-03T04:00:00Z,28.8660,-88.0560,1.0,10.4,35.0,99.0,'11111222,11111222,11144222' 
ADCP,ioos:station:wmo:42374:1,2011-01-03T04:20:00Z,28.8660,-88.0560,1.0,10.2,38.0,99.0,'11111222,11111222,11144222' 
ADCP,ioos:station:wmo:42374:1,2011-01-03T04:40:00Z,28.8660,-88.0560,1.0,10.1,36.0,99.0,'11111222,11111222,11144222' 
ADCP,ioos:station:wmo:42374:1,2011-01-03T05:00:00Z,28.8660,-88.0560,1.0,10.2,39.0,99.0,'11111222,11111222,11144222' 
ADCP,ioos:station:wmo:42374:1,2011-01-03T05:20:00Z,28.8660,-88.0560,1.0,10.5,38.0,99.0,'11111222,11111222,11144222' 
ADCP,ioos:station:wmo:42374:1,2011-01-03T05:40:00Z,28.8660,-88.0560,1.0,10.8,38.0,99.0,'11111222,11111222,11144222' 
ADCP,ioos:station:wmo:42374:1,2011-01-03T06:00:00Z,28.8660,-88.0560,1.0,10.4,42.0,99.0,'11111222,11111222,11144222' 
ADCP,ioos:station:wmo:42374:1,2011-01-03T06:20:00Z,28.8660,-88.0560,1.0,10.5,44.0,99.0,'11111222,11111222,11144222' 
ADCP,ioos:station:wmo:42374:1,2011-01-03T06:40:00Z,28.8660,-88.0560,1.0,10.5,39.0,99.0,'11111222,11111222,11144222' 
ADCP,ioos:station:wmo:42374:1,2011-01-03T07:00:00Z,28.8660,-88.0560,1.0,11.2,39.0,99.0,'11111222,11111222,11144222' 
ADCP,ioos:station:wmo:42374:1,2011-01-03T07:20:00Z,28.8660,-88.0560,1.0,10.4,44.0,99.0,'11111222,11111222,11144222' 
ADCP,ioos:station:wmo:42374:1,2011-01-03T07:40:00Z,28.8660,-88.0560,1.0,9.9,47.0,99.0,'11111222,11111222,11144222' 
ADCP,ioos:station:wmo:42374:1,2011-01-03T08:00:00Z,28.8660,-88.0560,1.0,10.1,43.0,99.0,'11111222,11111222,11144222' 
ADCP,ioos:station:wmo:42374:1,2011-01-03T08:20:00Z,28.8660,-88.0560,1.0,9.9,45.0,99.0,'11111222,11111222,11144222' 
ADCP,ioos:station:wmo:42374:1,2011-01-03T08:40:00Z,28.8660,-88.0560,1.0,9.9,45.0,99.0,'11111222,11111222,11144222' 
ADCP,ioos:station:wmo:42374:1,2011-01-03T09:00:00Z,28.8660,-88.0560,1.0,9.8,48.0,99.0,'11111222,11111222,11144222' 
ADCP,ioos:station:wmo:42374:1,2011-01-03T09:20:00Z,28.8660,-88.0560,1.0,9.8,51.0,99.0,'11111222,11111222,11144222' 
ADCP,ioos:station:wmo:42374:1,2011-01-03T09:40:00Z,28.8660,-88.0560,1.0,9.3,50.0,99.0,'11111222,11111222,11144222' 
ADCP,ioos:station:wmo:42374:1,2011-01-03T10:00:00Z,28.8660,-88.0560,1.0,9.2,53.0,99.0,'11111222,11111222,11144222' 
ADCP,ioos:station:wmo:42374:1,2011-01-03T10:20:00Z,28.8660,-88.0560,1.0,8.7,53.0,99.0,'11111222,11111222,11144222' 
ADCP,ioos:station:wmo:42374:1,2011-01-03T11:00:00Z,28.8660,-88.0560,1.0,8.1,53.0,99.0,'11111222,11111222,11144222' 
ADCP,ioos:station:wmo:42374:1,2011-01-03T11:20:00Z,28.8660,-88.0560,1.0,7.7,59.0,99.0,'11111222,11111222,11144222' 
ADCP,ioos:station:wmo:42374:1,2011-01-03T11:40:00Z,28.8660,-88.0560,1.0,8.0,60.0,99.0,'11111222,11111222,11144222' 
ADCP,ioos:station:wmo:42374:1,2011-01-03T12:00:00Z,28.8660,-88.0560,1.0,8.2,60.0,99.0,'11111222,11111222,11144222' 
ADCP,ioos:station:wmo:42374:1,2011-01-03T12:20:00Z,28.8660,-88.0560,1.0,7.8,63.0,99.0,'11111222,11111222,11144222' 
ADCP,ioos:station:wmo:42374:1,2011-01-03T12:40:00Z,28.8660,-88.0560,1.0,8.2,63.0,99.0,'11111222,11111222,11144222' 
ADCP,ioos:station:wmo:42374:1,2011-01-03T13:00:00Z,28.8660,-88.0560,1.0,7.8,67.0,99.0,'11111222,11111222,11144222' 
ADCP,ioos:station:wmo:42374:1,2011-01-03T13:20:00Z,28.8660,-88.0560,1.0,8.0,64.0,99.0,'11111222,11111222,11144222' 
ADCP,ioos:station:wmo:42374:1,2011-01-03T13:40:00Z,28.8660,-88.0560,1.0,7.4,65.0,99.0,'11111222,11111222,11144222' 
ADCP,ioos:station:wmo:42374:1,2011-01-03T14:00:00Z,28.8660,-88.0560,1.0,7.7,64.0,99.0,'11111222,11111222,11144222' 
ADCP,ioos:station:wmo:42374:1,2011-01-03T14:20:00Z,28.8660,-88.0560,1.0,7.6,67.0,99.0,'11111222,11111222,11144222' 
ADCP,ioos:station:wmo:42374:1,2011-01-03T14:40:00Z,28.8660,-88.0560,1.0,7.0,67.0,99.0,'11111222,11111222,11144222' 
ADCP,ioos:station:wmo:42374:1,2011-01-03T15:00:00Z,28.8660,-88.0560,1.0,7.2,68.0,99.0,'11111222,11111222,11144222' 
ADCP,ioos:station:wmo:42374:1,2011-01-03T15:20:00Z,28.8660,-88.0560,1.0,7.0,74.0,99.0,'11111222,11111222,11144222' 
ADCP,ioos:station:wmo:42374:1,2011-01-03T15:40:00Z,28.8660,-88.0560,1.0,6.9,74.0,99.0,'11111222,11111222,11144222' 
ADCP,ioos:station:wmo:42374:1,2011-01-03T16:00:00Z,28.8660,-88.0560,1.0,6.5,72.0,99.0,'11111222,11111222,11144222' 
ADCP,ioos:station:wmo:42374:1,2011-01-03T16:40:00Z,28.8660,-88.0560,1.0,6.6,79.0,99.0,'11111222,11111222,11144222' 
ADCP,ioos:station:wmo:42374:1,2011-01-03T17:00:00Z,28.8660,-88.0560,1.0,6.3,86.0,99.0,'11111222,11111222,11144222' 
ADCP,ioos:station:wmo:42374:1,2011-01-03T17:20:00Z,28.8660,-88.0560,1.0,5.5,89.0,99.0,'11111222,11111222,11144222' 
ADCP,ioos:station:wmo:42374:1,2011-01-03T17:40:00Z,28.8660,-88.0560,1.0,5.5,90.0,99.0,'11111222,11111222,11144222' 
ADCP,ioos:station:wmo:42374:1,2011-01-03T18:00:00Z,28.8660,-88.0560,1.0,5.9,91.0,99.0,'11111222,11111222,11144222' 
ADCP,ioos:station:wmo:42374:1,2011-01-03T18:20:00Z,28.8660,-88.0560,1.0,5.3,87.0,99.0,'11111222,11111222,11144222' 
ADCP,ioos:station:wmo:42374:1,2011-01-03T18:40:00Z,28.8660,-88.0560,1.0,5.0,96.0,99.0,'11111222,11111222,11144222' 
ADCP,ioos:station:wmo:42374:1,2011-01-03T19:00:00Z,28.8660,-88.0560,1.0,4.7,94.0,99.0,'11111222,11111222,11144222' 
ADCP,ioos:station:wmo:42374:1,2011-01-03T19:20:00Z,28.8660,-88.0560,1.0,4.9,98.0,99.0,'11111222,11111222,11144222' 
ADCP,ioos:station:wmo:42374:1,2011-01-03T19:40:00Z,28.8660,-88.0560,1.0,5.2,92.0,99.0,'11111222,11111222,11144222' 
ADCP,ioos:station:wmo:42374:1,2011-01-03T20:00:00Z,28.8660,-88.0560,1.0,5.7,94.0,99.0,'11111222,11111222,11144222' 
ADCP,ioos:station:wmo:42374:1,2011-01-03T20:20:00Z,28.8660,-88.0560,1.0,5.8,106.0,99.0,'11111222,11111222,11144222' 
ADCP,ioos:station:wmo:42374:1,2011-01-03T20:40:00Z,28.8660,-88.0560,1.0,6.1,108.0,99.0,'11111222,11111222,11144222' 
ADCP,ioos:station:wmo:42374:1,2011-01-03T21:00:00Z,28.8660,-88.0560,1.0,5.8,105.0,99.0,'11111222,11111222,11144222' 